Torna al catalogo

SL-16 DEB

AttivoLEO
NORAD 22421·DEBRIS·🇷🇺 Russia

Lanciato Dec 25, 1992 da Baikonur Cosmodrome

Loading…

Prossimi Passaggi (prossime 24 ore)

TLE

AggiornatoSource: Space-Track

Epoca: Sep 14, 2026, 02:40 UTC

1 22421U 92093DN  26257.11166118  .00000110  00000-0  82669-4 0  9998
2 22421  71.0360 299.8814 0093456 175.5521 215.3681 14.11744250729669

Traccia SL-16 DEB in tempo reale con AllMySat

Download on the App Store